Location: Newark
(48.9886°N, 1.2358°E)
Time: 15:36:44
(UTC+00:00)

Transit 4A - Pass Details

Date: 25 November 2019
Orbit: 870 x 975 km, 66.8° (Epoch: 08 December)

Event Time Altitude Azimuth Distance (km) Brightness Sun altitude
Exits shadow 04:31:39 40° 347° (NNW) 1,279 8.4 -26.9°
Maximum altitude 04:33:39 62° 50° (NE) 986 8.1 -26.5°
Drops below altitude 10° 04:39:24 10° 131° (SE) 2,516 10.8 -25.6°
Sets 04:41:53 0° 135° (SE) 3,447 11.6 -25.2°
